Regional Weather Roundup
Issued by NWS

Home | Current Version | Previous Version | Text Only | Print | Product List | Glossary Off
Versions: 1 2 3 4 5 6 7 8 9 10 11 12 13 14 15 16 17 18 19 20 21 22 23 24 25 26 27 28 29 30 31 32 33 34 35 36 37 38 39 40 41 42 43 44 45 46 47 48 49 50

000
ASUS45 KBOI 260310
RWRID
WEATHER ROUNDUP FOR IDAHO
NATIONAL WEATHER SERVICE BOISE ID
900 PM MDT SAT APR 25 2015

NOTE: "FAIR" INDICATES FEW OR NO CLOUDS BELOW 12000 FEET
WITH NO SIGNIFICANT WEATHER AND/OR OBSTRUCTIONS TO VISIBILITY

IDZ012-014-260400-
SOUTHWEST IDAHO


CITY           SKY/WX    TMP DP  RH WIND       PRES   REMARKS
BOISE          MOCLDY    50  28  42 NW18G29   29.85R
CALDWELL       CLOUDY    50  28  43 W21G30    29.89R
$$

IDZ016-017-260400-
SOUTHCENTRAL IDAHO


CITY           SKY/WX    TMP DP  RH WIND       PRES   REMARKS
BURLEY         CLOUDY    44  34  67 W7        29.79R
JEROME         CLOUDY    43  32  65 W5        29.80F
TWIN FALLS     CLOUDY    43  34  70 S7        29.81S
$$

IDZ019>023-260400-
SOUTHEAST IDAHO


CITY           SKY/WX    TMP DP  RH WIND       PRES   REMARKS
IDAHO FALLS    CLOUDY    50  31  48 NE6       29.73R
POCATELLO      CLOUDY    50  34  54 SW14      29.75R
REXBURG        CLOUDY    48  28  46 NE6       29.74R
$$

IDZ006-010-011-018-031-032-260400-
CENTRAL IDAHO MOUNTAINS


CITY           SKY/WX    TMP DP  RH WIND       PRES   REMARKS
MCCALL         CLOUDY    38  29  70 VRB7G17   29.85R WCI  33
HAILEY         LGT RAIN  39  37  93 S5        29.80R
STANLEY          N/A     36  22  56 N5        29.82R WCI  32
SALMON         CLOUDY    46  32  57 S7        29.79R
CHALLIS        LGT RAIN  38  35  89 NW3       29.80R
$$

IDZ002-004-006-007-026-260400-
NORTHERN IDAHO


CITY           SKY/WX    TMP DP  RH WIND       PRES   REMARKS
LEWISTON       MOCLDY    49  35  58 S5        29.93R
LOWELL           N/A     46  42  86 CALM      29.95R
COEUR D`ALENE  CLOUDY    41  37  87 N3        29.94R
MULLAN PASS    FOG       28  27  96 NW7       29.87R VSB 3/4 WCI  21
$$



USA.gov is the U.S. government's official web portal to all federal, state and local government web resources and services.